Location: *
(35.2348°S, 91.3916°E)
Time: 11:39:08
(UTC+00:00)

Meteor 1-4 Rocket - Pass Details

Date: 23 October 2019
Orbit: 450 x 503 km, 81.2° (Epoch: 17 November)

Event Time Altitude Azimuth Distance (km) Brightness Sun altitude
Rises 20:37:32 0° 182° (S) 2,614 6.8 -27.0°
Reaches altitude 10° 20:39:46 10° 175° (S) 1,713 5.8 -26.6°
Enters shadow 20:42:51 42° 128° (SE) 715 3.8 -26.1°
